Regional Weather Roundup
Issued by NWS

Home | Current Version | Previous Version | Text Only | Print | Product List | Glossary On
Versions: 1 2 3 4 5 6 7 8 9 10 11 12 13 14 15 16 17 18 19 20 21 22 23 24 25 26 27 28 29 30 31 32 33 34 35 36 37 38 39 40 41 42 43 44 45 46 47 48 49 50
000
ASUS43 KMKX 171011
RWRWI

WISCONSIN REGIONAL WEATHER ROUNDUP
NATIONAL WEATHER SERVICE MILWAUKEE/SULLIVAN WI
500 AM CDT TUE OCT 17 2017

NOTE: "FAIR" INDICATES FEW OR NO CLOUDS BELOW 12,000 FEET WITH NO
SIGNIFICANT WEATHER AND/OR OBSTRUCTIONS TO VISIBILITY.

WIZ001-002-006>008-014>016-023>028-171100-
NORTHWEST WISCONSIN

CITY           SKY/WX    TMP DP  RH WIND       PRES   REMARKS
SUPERIOR ARPT  CLOUDY    44  39  82 SW8       29.93R
ASHLAND        CLEAR     49  38  65 SW10      29.93R
HAYWARD        CLEAR     36  33  89 CALM      29.97R
SIREN          CLEAR     39  35  87 CALM      29.97R
CUMBERLAND     CLEAR     39  34  81 S5        29.97R
RICE LAKE      CLEAR     37  37  97 CALM      29.99R
CHETEK         CLEAR     37  37 100 CALM      29.99R
LADYSMITH      CLOUDY    37  33  88 CALM      30.00R
EAU CLAIRE     CLEAR     42  39  89 SW5       29.99R
MENOMONIE      CLEAR     42  39  88 CALM      29.99S
NEW RICHMOND   CLEAR     40  36  85 CALM      29.99R
OSCEOLA        CLEAR     38  38 100 CALM      30.01R
$$

WIZ003>005-009-010-017-018-171100-
NORTH CENTRAL WISCONSIN

CITY           SKY/WX    TMP DP  RH WIND       PRES   REMARKS
MANITOWISH WTR CLEAR     42  37  80 SW3       29.95R
ARBOR VITAE    CLOUDY    39  37  91 CALM      29.95S
WOODRUFF       CLOUDY    39  37  91 CALM      29.95S
RHINELANDER    CLOUDY    43  37  79 W6        29.97R
EAGLE RIVER    CLOUDY    41  34  76 CALM      29.95R
LAND O LAKES   CLOUDY    35  34  96 CALM      29.96R
PHILLIPS       CLEAR     40  36  85 CALM      29.97R
TOMAHAWK       CLOUDY    36  34  91 CALM      29.98R
MEDFORD        CLOUDY    43  36  77 SW6       29.98S
MERRILL        CLOUDY    38  36  91 CALM      29.99R
$$

WIZ029-030-035-036-043>047-171100-
CENTRAL WISCONSIN

CITY           SKY/WX    TMP DP  RH WIND       PRES   REMARKS
WAUSAU         CLOUDY    46  37  71 SW5       29.99R
MOSINEE        CLOUDY    41  36  81 S6        30.01R
MARSHFIELD     CLEAR     45  36  70 SW6       30.00R
STEVENS POINT  CLEAR     40  36  83 CALM      30.02R
WAUPACA        CLEAR     46  38  73 S3        30.02S
WAUTOMA        CLEAR     36  35  96 CALM      30.04S
WISC RAPIDS    CLEAR     47  39  74 SW6       30.02R
CAMP DOUGLAS   NOT AVBL
$$

WIZ011>013-019>022-031-037>040-048>050-171100-
NORTHEAST WISCONSIN

CITY           SKY/WX    TMP DP  RH WIND       PRES   REMARKS
ANTIGO         CLOUDY    42  36  81 SW6       29.98S
SHAWANO        CLOUDY    48  38  67 CALM      29.99S
OCONTO         CLEAR     49  37  63 W9        29.98S
STURGEON BAY   CLEAR     55  39  54 SW15G24   29.98R
GREEN BAY      CLEAR     51  40  65 SW8       30.01S
MANITOWOC      CLEAR     54  38  54 SW14G20   30.02S
APPLETON       CLEAR     46  36  66 SW12      30.01R
CLINTONVILLE   CLOUDY    45  37  76 SW7       30.00S
OSHKOSH        CLEAR     49  39  68 SW14G22   30.02S
$$

WIZ032>034-041-042-053>061-171100-
SOUTHWEST WISCONSIN

CITY           SKY/WX    TMP DP  RH WIND       PRES   REMARKS
LA CROSSE      CLEAR     52  42  69 CALM      30.03S
SPARTA         CLEAR     51  40  67 S3        30.04R
VIROQUA        CLEAR     50  41  70 CALM      30.05S
BOSCOBEL       CLEAR     46  40  79 SW3       30.08S
PRAIRIE DU CHI CLEAR     54  38  55 S3        30.08R
PLATTEVILLE    CLOUDY    48  41  75 S8        30.12S
$$

WIZ056-057-062-063-064-067-068-171100-
SOUTH CENTRAL WISCONSIN

CITY           SKY/WX    TMP DP  RH WIND       PRES   REMARKS
REEDSBURG      CLEAR     51  38  62 W6        30.07R
BARABOO/DELLS  CLEAR     50  37  61 W5        30.07R
LONE ROCK      CLEAR     51  41  68 CALM      30.08S
MINERAL POINT  CLEAR     50  41  71 S7        30.10S
MADISON        CLEAR     52  39  61 SW8       30.08F
MIDDLETON      CLEAR     52  38  60 SW13      30.08F
WATERTOWN      CLEAR     48  40  73 SW13      30.09S
MONROE         CLEAR     45  37  76 SW16      30.11F
JANESVILLE     CLEAR     46  37  71 SW12      30.12F
$$

WIZ051-052-058>065-066-070>072-171100-
SOUTHEAST WISCONSIN

CITY           SKY/WX    TMP DP  RH WIND       PRES   REMARKS
MILWAUKEE      PTCLDY    50  38  63 SW13      30.11F
WAUKESHA       CLEAR     46  36  66 S7        30.12S
MILWAUKEE/TIMM CLEAR     50  34  53 SW10      30.11S
RACINE         CLEAR     51  38  60 SW12      30.14S
BURLINGTON     CLEAR     47  40  77 SW9       30.13S
KENOSHA        CLEAR     50  38  63 SW10      30.14S
FOND DU LAC    CLEAR     50  37  61 SW13G22   30.04S
SHEBOYGAN      CLEAR     53  39  59 SW12G21   30.04F
WEST BEND      CLEAR     54  36  50 SW12G17   30.07S
JUNEAU         CLEAR     46  38  73 S7        30.09S
$$

LSZ147-162-171100-
LAKE SUPERIOR

STATION/POSITION TIME  TEMP    WIND        PRES    WAVE
                       AIR SEA DIR/SP/G            HT/PER
                 (UTC) (F)     (DEG/KT/KT) (MB)    (FT/S)
W MID LAKE BUOY  0950   54 53              1011.3R   3/ 5
DEVILS ISLAND    1000   55     230/ 17/ 19 1012.8R
SAXON HARBOR     0940   51     200/  8/ 11 1012.5S
$$

LMZ867-665-643>646-171100-
LAKE MICHIGAN

STATION/POSITION TIME  TEMP    WIND        PRES    WAVE
                       AIR SEA DIR/SP/G            HT/PER
                 (UTC) (F)     (DEG/KT/KT) (MB)    (FT/S)
S GREEN BAY BUOY 1000   55 58  220/ 19/ 23 1014.8
N MID LAKE BUOY  0950   58 60  220/ 23/ 27 1014.3S   7/ 7
NORTHPORT PIER   0940   56     240/  8/ 23 1014.2R
KEWAUNEE LAKESHO 0942   54     250/  8/ 14 1014.7F
SHEBOYGAN LAKESH 1000   56     230/ 15/ 19 1017.0F
PORT WASHINGTON  0940   56     250/  9/ 16 1019.0F
MILWAUKEE LAKESH 0950   52     240/ 13/ 15   N/A
S MID LAKE BUOY  0950   60 62  240/ 19/ 23 1021.0F   4/ 5
KENOSHA   LAKESH 1000   53     230/ 12/ 18 1020.7
$$

TC  - TEMPERATURE IN CELSIUS
VSB - VISIBILITY IN STATUTE MILES
WCI - WIND CHILL INDEX
HX  - HEAT INDEX





USA.gov is the U.S. government's official web portal to all federal, state and local government web resources and services.